IRIDIUM 914

Last updated on Wed Nov 29 2017 00:19:02 GMT+0000 (Coordinated Universal Time)

1 24836U 97030A 17332.46459455 .00000117 00000-0 31474-4 0 9992 2 24836 86.3948 265.3525 0001045 32.9872 327.1391 14.38792349 72568

Satellite not in orbit

IRIDIUM 914